| time (UTC) | temp C | wind direction | speed KPH | gust KPH | rain 1hr cm | rain 24hr cm | rain mn cm | humidity % | barometer mb |
| 20260506221817 | 28 | 45 | 6.4 | 11.3 | 0.00 | 0.00 | 0.00 | 21 | 1016.0 |
| 20260506220837 | 28 | 68 | 8.0 | 14.5 | 0.00 | 0.00 | 0.00 | 22 | 1016.2 |
| 20260506215817 | 27 | 113 | 6.4 | 11.3 | 0.00 | 0.00 | 0.00 | 23 | 1016.2 |
| 20260506214837 | 27 | 68 | 4.8 | 8.0 | 0.00 | 0.00 | 0.00 | 23 | 1016.4 |
| 20260506213817 | 27 | 68 | 3.2 | 6.4 | 0.00 | 0.00 | 0.00 | 23 | 1016.5 |
| 20260506212817 | 27 | 68 | 4.8 | 12.9 | 0.00 | 0.00 | 0.00 | 22 | 1016.6 |
| 20260506211837 | 27 | 315 | 1.6 | 3.2 | 0.00 | 0.00 | 0.00 | 23 | 1016.6 |
| 20260506210817 | 27 | 315 | 3.2 | 4.8 | 0.00 | 0.00 | 0.00 | 24 | 1016.8 |
| 20260506205817 | 27 | 293 | 4.8 | 9.7 | 0.00 | 0.00 | 0.00 | 25 | 1016.8 |
| 20260506204817 | 26 | 0.0 | 1.6 | 0.00 | 0.00 | 0.00 | 25 | 1016.8 | |
| 20260506203817 | 26 | 0.0 | 0.0 | 0.00 | 0.00 | 0.00 | 25 | 1017.0 | |
| 20260506202817 | 26 | 45 | 6.4 | 11.3 | 0.00 | 0.00 | 0.00 | 25 | 1017.1 |
| 20260506201816 | 26 | 113 | 8.0 | 16.1 | 0.00 | 0.00 | 0.00 | 25 | 1017.0 |
| 20260506200837 | 26 | 113 | 3.2 | 6.4 | 0.00 | 0.00 | 0.00 | 25 | 1017.2 |
| 20260506195817 | 25 | 180 | 4.8 | 8.0 | 0.00 | 0.00 | 0.00 | 25 | 1017.1 |
| 20260506194817 | 25 | 68 | 1.6 | 3.2 | 0.00 | 0.00 | 0.00 | 26 | 1017.2 |
| 20260506193816 | 25 | 113 | 4.8 | 9.7 | 0.00 | 0.00 | 0.00 | 26 | 1017.3 |
| 20260506192817 | 25 | 0.0 | 1.6 | 0.00 | 0.00 | 0.00 | 27 | 1017.5 | |
| 20260506191817 | 25 | 338 | 3.2 | 9.7 | 0.00 | 0.00 | 0.00 | 27 | 1017.6 |
| 20260506190817 | 25 | 113 | 1.6 | 3.2 | 0.00 | 0.00 | 0.00 | 28 | 1017.7 |
| 20260506185817 | 24 | 0.0 | 0.0 | 0.00 | 0.00 | 0.00 | 30 | 1017.8 | |
| 20260506184817 | 23 | 338 | 1.6 | 4.8 | 0.00 | 0.00 | 0.00 | 32 | 1017.9 |
| 20260506183817 | 23 | 90 | 3.2 | 8.0 | 0.00 | 0.00 | 0.00 | 32 | 1017.8 |
| 20260506182817 | 23 | 45 | 1.6 | 4.8 | 0.00 | 0.00 | 0.00 | 33 | 1018.2 |
| 20260506181837 | 22 | 0.0 | 0.0 | 0.00 | 0.00 | 0.00 | 33 | 1018.0 | |
| 20260506180817 | 23 | 0.0 | 1.6 | 0.00 | 0.00 | 0.00 | 34 | 1018.3 | |
| 20260506175816 | 22 | 158 | 1.6 | 3.2 | 0.00 | 0.00 | 0.00 | 36 | 1018.2 |
| 20260506174816 | 21 | 158 | 1.6 | 3.2 | 0.00 | 0.00 | 0.00 | 37 | 1018.0 |
| 20260506173817 | 21 | 68 | 3.2 | 4.8 | 0.00 | 0.00 | 0.00 | 37 | 1018.0 |
| 20260506172817 | 20 | 158 | 6.4 | 8.0 | 0.00 | 0.00 | 0.00 | 38 | 1017.9 |
| 20260506171816 | 20 | 338 | 6.4 | 9.7 | 0.00 | 0.00 | 0.00 | 38 | 1018.2 |
| 20260506170817 | 20 | 0 | 6.4 | 11.3 | 0.00 | 0.00 | 0.00 | 40 | 1018.0 |
| 20260506165817 | 20 | 45 | 3.2 | 6.4 | 0.00 | 0.00 | 0.00 | 40 | 1018.1 |
| 20260506164816 | 19 | 315 | 3.2 | 8.0 | 0.00 | 0.00 | 0.00 | 41 | 1018.1 |
| 20260506163836 | 18 | 315 | 6.4 | 9.7 | 0.00 | 0.00 | 0.00 | 42 | 1017.9 |
| 20260506162816 | 18 | 293 | 1.6 | 3.2 | 0.00 | 0.00 | 0.00 | 45 | 1017.9 |
| 20260506161817 | 18 | 0.0 | 4.8 | 0.00 | 0.00 | 0.00 | 44 | 1017.9 | |
| 20260506160836 | 18 | 315 | 3.2 | 6.4 | 0.00 | 0.00 | 0.00 | 45 | 1017.8 |
| 20260506155816 | 17 | 293 | 1.6 | 4.8 | 0.00 | 0.00 | 0.00 | 47 | 1017.7 |
| 20260506154816 | 17 | 315 | 3.2 | 9.7 | 0.00 | 0.00 | 0.00 | 46 | 1017.7 |
| 20260506153816 | 17 | 315 | 1.6 | 3.2 | 0.00 | 0.00 | 0.00 | 48 | 1017.9 |
| 20260506152816 | 16 | 270 | 1.6 | 4.8 | 0.00 | 0.00 | 0.00 | 51 | 1017.7 |
| 20260506151816 | 16 | 315 | 1.6 | 4.8 | 0.00 | 0.00 | 0.00 | 52 | 1017.7 |
| 20260506150836 | 15 | 293 | 1.6 | 8.0 | 0.00 | 0.00 | 0.00 | 53 | 1017.7 |
| 20260506145816 | 15 | 248 | 4.8 | 9.7 | 0.00 | 0.00 | 0.00 | 56 | 1017.5 |
| 20260506144816 | 15 | 270 | 4.8 | 12.9 | 0.00 | 0.00 | 0.00 | 57 | 1017.7 |
| 20260506143816 | 13 | 248 | 3.2 | 11.3 | 0.00 | 0.00 | 0.00 | 60 | 1017.5 |
| 20260506142816 | 13 | 270 | 1.6 | 4.8 | 0.00 | 0.00 | 0.00 | 63 | 1017.4 |
| 20260506141816 | 12 | 0.0 | 1.6 | 0.00 | 0.00 | 0.00 | 65 | 1017.5 | |
| 20260506140816 | 12 | 0.0 | 3.2 | 0.00 | 0.00 | 0.00 | 67 | 1017.5 | |
| 20260506135816 | 11 | 270 | 8.0 | 11.3 | 0.00 | 0.00 | 0.00 | 69 | 1017.2 |
| 20260506134816 | 11 | 315 | 3.2 | 6.4 | 0.00 | 0.00 | 0.00 | 71 | 1017.2 |
| 20260506133816 | 10 | 0.0 | 1.6 | 0.00 | 0.00 | 0.00 | 72 | 1017.1 | |
| 20260506132818 | 10 | 338 | 1.6 | 6.4 | 0.00 | 0.00 | 0.00 | 74 | 1016.8 |
| 20260506131816 | 10 | 0.0 | 1.6 | 0.00 | 0.00 | 0.00 | 76 | 1016.8 | |
| 20260506130816 | 10 | 293 | 1.6 | 4.8 | 0.00 | 0.00 | 0.00 | 77 | 1016.7 |
| 20260506125836 | 9 | 270 | 1.6 | 4.8 | 0.00 | 0.00 | 0.00 | 80 | 1016.4 |
| 20260506124816 | 8 | 338 | 1.6 | 3.2 | 0.00 | 0.00 | 0.00 | 79 | 1016.5 |
| 20260506123816 | 8 | 0.0 | 0.0 | 0.00 | 0.00 | 0.00 | 78 | 1016.6 | |
| 20260506122816 | 8 | 0.0 | 3.2 | 0.00 | 0.00 | 0.00 | 80 | 1016.6 | |
| 20260506121816 | 6 | 0.0 | 0.0 | 0.00 | 0.00 | 0.00 | 84 | 1016.4 | |
| 20260506120816 | 6 | 0.0 | 0.0 | 0.00 | 0.00 | 0.00 | 84 | 1016.1 | |
| 20260506115816 | 5 | 0.0 | 0.0 | 0.00 | 0.00 | 0.00 | 81 | 1015.8 | |
| 20260506114816 | 5 | 0.0 | 0.0 | 0.00 | 0.00 | 0.00 | 80 | 1016.0 | |
| 20260506113816 | 5 | 0.0 | 0.0 | 0.00 | 0.00 | 0.00 | 79 | 1015.9 | |
| 20260506112836 | 6 | 338 | 3.2 | 4.8 | 0.00 | 0.00 | 0.00 | 75 | 1016.1 |
| 20260506111816 | 8 | 315 | 9.7 | 11.3 | 0.00 | 0.00 | 0.00 | 71 | 1016.3 |
| 20260506110816 | 10 | 270 | 3.2 | 6.4 | 0.00 | 0.00 | 0.00 | 74 | 1016.4 |
| 20260506105817 | 10 | 225 | 4.8 | 11.3 | 0.00 | 0.00 | 0.00 | 74 | 1016.3 |
| 20260506104816 | 9 | 270 | 1.6 | 4.8 | 0.00 | 0.00 | 0.00 | 76 | 1016.4 |
| 20260506103816 | 9 | 248 | 1.6 | 4.8 | 0.00 | 0.00 | 0.00 | 77 | 1016.4 |
| 20260506102816 | 9 | 248 | 4.8 | 6.4 | 0.00 | 0.00 | 0.00 | 77 | 1016.4 |
| 20260506101836 | 9 | 248 | 3.2 | 6.4 | 0.00 | 0.00 | 0.00 | 76 | 1016.4 |
| 20260506100816 | 10 | 225 | 4.8 | 6.4 | 0.00 | 0.00 | 0.00 | 76 | 1016.4 |
| 20260506095816 | 10 | 225 | 6.4 | 9.7 | 0.00 | 0.00 | 0.00 | 76 | 1016.4 |
| 20260506094856 | 10 | 225 | 9.7 | 17.7 | 0.00 | 0.00 | 0.00 | 76 | 1016.5 |
| 20260506093816 | 10 | 225 | 9.7 | 12.9 | 0.00 | 0.00 | 0.00 | 76 | 1016.5 |
| 20260506092816 | 10 | 225 | 8.0 | 16.1 | 0.00 | 0.00 | 0.00 | 76 | 1016.6 |
| 20260506091836 | 9 | 225 | 8.0 | 11.3 | 0.00 | 0.00 | 0.00 | 76 | 1016.3 |
| 20260506090816 | 10 | 225 | 6.4 | 8.0 | 0.00 | 0.00 | 0.00 | 75 | 1016.4 |
| 20260506085816 | 10 | 225 | 8.0 | 14.5 | 0.00 | 0.00 | 0.00 | 75 | 1016.4 |
| 20260506084816 | 10 | 248 | 8.0 | 19.3 | 0.00 | 0.00 | 0.00 | 75 | 1016.2 |
| 20260506083816 | 10 | 225 | 6.4 | 9.7 | 0.00 | 0.00 | 0.00 | 73 | 1016.2 |
| 20260506082815 | 10 | 225 | 8.0 | 14.5 | 0.00 | 0.00 | 0.00 | 73 | 1016.1 |
| 20260506081816 | 10 | 225 | 9.7 | 12.9 | 0.00 | 0.00 | 0.00 | 74 | 1016.1 |
| 20260506080816 | 9 | 225 | 6.4 | 8.0 | 0.00 | 0.00 | 0.00 | 74 | 1016.2 |
| 20260506072816 | 9 | 248 | 6.4 | 11.3 | 0.00 | 0.00 | 0.00 | 73 | 1016.1 |
| 20260506071816 | 10 | 225 | 6.4 | 11.3 | 0.00 | 0.00 | 0.00 | 72 | 1016.0 |
| 20260506070815 | 10 | 225 | 4.8 | 6.4 | 0.00 | 0.00 | 0.00 | 71 | 1016.0 |
| 20260506061815 | 11 | 225 | 8.0 | 11.3 | 0.00 | 0.00 | 0.00 | 66 | 1015.5 |
| 20260506060818 | 11 | 248 | 8.0 | 11.3 | 0.00 | 0.00 | 0.00 | 67 | 1015.5 |
| 20260506050817 | 11 | 248 | 6.4 | 12.9 | 0.00 | 0.00 | 0.00 | 68 | 1014.9 |
| 20260506044819 | 11 | 225 | 6.4 | 12.9 | 0.00 | 0.00 | 0.00 | 67 | 1014.9 |
| 20260506043837 | 11 | 248 | 6.4 | 11.3 | 0.00 | 0.00 | 0.00 | 67 | 1014.7 |
| 20260506042837 | 11 | 248 | 6.4 | 12.9 | 0.00 | 0.00 | 0.00 | 66 | 1014.6 |
| 20260506041817 | 11 | 225 | 6.4 | 11.3 | 0.00 | 0.00 | 0.00 | 67 | 1014.4 |
| 20260506040837 | 11 | 248 | 12.9 | 20.9 | 0.00 | 0.00 | 0.00 | 67 | 1014.4 |
| 20260506035818 | 11 | 225 | 4.8 | 8.0 | 0.00 | 0.00 | 0.00 | 67 | 1014.3 |
| 20260506034817 | 11 | 248 | 6.4 | 14.5 | 0.00 | 0.00 | 0.00 | 66 | 1013.9 |
| 20260506033817 | 11 | 270 | 8.0 | 12.9 | 0.00 | 0.00 | 0.00 | 66 | 1013.8 |
| 20260506032837 | 11 | 248 | 9.7 | 19.3 | 0.00 | 0.00 | 0.00 | 65 | 1013.6 |
| 20260506031817 | 12 | 248 | 8.0 | 17.7 | 0.00 | 0.00 | 0.00 | 65 | 1013.6 |
| 20260506030817 | 12 | 225 | 6.4 | 14.5 | 0.00 | 0.00 | 0.00 | 65 | 1013.5 |
| 20260506025837 | 12 | 248 | 8.0 | 11.3 | 0.00 | 0.00 | 0.00 | 64 | 1013.5 |
| 20260506024817 | 12 | 248 | 8.0 | 12.9 | 0.00 | 0.00 | 0.00 | 63 | 1013.1 |
| 20260506023817 | 12 | 270 | 6.4 | 12.9 | 0.00 | 0.00 | 0.00 | 63 | 1013.2 |
| 20260506022817 | 12 | 270 | 9.7 | 16.1 | 0.00 | 0.00 | 0.00 | 62 | 1013.1 |
| 20260506021817 | 13 | 248 | 9.7 | 19.3 | 0.00 | 0.00 | 0.00 | 60 | 1012.8 |
| 20260506020837 | 13 | 248 | 4.8 | 11.3 | 0.00 | 0.00 | 0.00 | 59 | 1012.9 |
| 20260506015817 | 14 | 270 | 12.9 | 17.7 | 0.00 | 0.00 | 0.00 | 57 | 1012.7 |
| 20260506014817 | 14 | 248 | 4.8 | 11.3 | 0.00 | 0.00 | 0.00 | 56 | 1012.5 |
| 20260506013817 | 14 | 225 | 1.6 | 4.8 | 0.00 | 0.00 | 0.00 | 56 | 1012.5 |
| 20260506012817 | 15 | 270 | 12.9 | 22.5 | 0.00 | 0.00 | 0.00 | 54 | 1012.5 |
| 20260506011817 | 15 | 270 | 9.7 | 20.9 | 0.00 | 0.00 | 0.00 | 52 | 1012.6 |
| 20260506010817 | 16 | 315 | 6.4 | 19.3 | 0.00 | 0.00 | 0.00 | 50 | 1012.5 |
| 20260506005817 | 16 | 248 | 6.4 | 9.7 | 0.00 | 0.00 | 0.00 | 49 | 1012.6 |
| 20260506004817 | 16 | 315 | 9.7 | 19.3 | 0.00 | 0.00 | 0.00 | 48 | 1012.6 |
| 20260506003817 | 16 | 315 | 4.8 | 12.9 | 0.00 | 0.00 | 0.00 | 48 | 1012.5 |
| 20260506002817 | 17 | 293 | 8.0 | 14.5 | 0.00 | 0.00 | 0.00 | 47 | 1012.5 |
| 20260506001817 | 17 | 270 | 3.2 | 6.4 | 0.00 | 0.00 | 0.00 | 47 | 1012.5 |
| 20260506000817 | 17 | 293 | 6.4 | 16.1 | 0.00 | 0.00 | 0.00 | 45 | 1012.3 |
| 20260505235837 | 17 | 248 | 4.8 | 9.7 | 0.00 | 0.00 | 0.00 | 44 | 1012.1 |
| 20260505234817 | 18 | 270 | 8.0 | 14.5 | 0.00 | 0.00 | 0.00 | 42 | 1012.2 |
| 20260505233837 | 18 | 225 | 3.2 | 8.0 | 0.00 | 0.00 | 0.00 | 41 | 1012.2 |
| 20260505232817 | 18 | 293 | 9.7 | 16.1 | 0.00 | 0.00 | 0.00 | 41 | 1012.1 |
| 20260505231817 | 18 | 315 | 6.4 | 9.7 | 0.00 | 0.00 | 0.00 | 41 | 1012.1 |
| 20260505230817 | 18 | 270 | 4.8 | 6.4 | 0.00 | 0.00 | 0.00 | 42 | 1012.2 |
| 20260505225857 | 18 | 248 | 8.0 | 14.5 | 0.00 | 0.00 | 0.00 | 42 | 1012.2 |
| 20260505224857 | 18 | 270 | 9.7 | 20.9 | 0.00 | 0.00 | 0.00 | 42 | 1012.4 |
| 20260505223837 | 19 | 270 | 8.0 | 16.1 | 0.00 | 0.00 | 0.00 | 42 | 1012.5 |